This demonstration page uses our WeatherBlox Daily Observations layout. Learn more.

Left ArrowRight Arrow

40.92945, -100.16068

Hourly Observations for December 12, 2020

Temp ( °F °C ) Dew Point ( °F °C ) Humidity (%) Winds ( mph kmh ) Pressure ( in mb ) Visibility ( mi km ) Precip ( " mm )
12:15 am 00:15 Cloudy with Light Snow 29 -1.8 26 -3.6 88 88 N 15 24 30.12 1020 5 8.0467 0 0
12:35 am 00:35 Cloudy with Light Snow 28 -2 25 -3.8 88 88 N 16 26 30.12 1020 4 6.43736 0 0
12:55 am 00:55 Cloudy with Light Snow 28 -2.1 25 -4 87 87 N 18 30 30.11 1020 5 8.0467 0 0
1:15 am 01:15 Cloudy 28 -2.2 25 -4.1 87 87 N 17 28 30.11 1020 7 11.26538 0 0
1:35 am 01:35 Cloudy 28 -2.2 24 -4.2 86 86 N 16 26 30.1 1019 7 11.26538 0 0
1:55 am 01:55 Cloudy 28 -2.3 24 -4.3 86 86 N 17 28 30.1 1019 10 16.0934 0 0
2:15 am 02:15 Cloudy 28 -2.3 24 -4.5 85 85 N 16 26 30.11 1020 10 16.0934 0 0
2:35 am 02:35 Cloudy 28 -2.3 24 -4.7 84 84 N 17 28 30.11 1020 10 16.0934 0 0
2:55 am 02:55 Cloudy 28 -2.4 23 -4.9 83 83 N 15 24 30.12 1020 10 16.0934 0 0
3:15 am 03:15 Cloudy 28 -2.5 23 -4.9 84 84 N 14 22 30.14 1021 10 16.0934 0 0
3:35 am 03:35 Cloudy 27 -2.7 23 -5.1 84 84 NNW 13 20 30.14 1021 10 16.0934 0 0
3:55 am 03:55 Cloudy 27 -2.7 23 -5.1 84 84 NNW 12 19 30.15 1021 10 16.0934 0 0
4:15 am 04:15 Cloudy 27 -2.7 23 -5.1 84 84 NNW 10 17 30.15 1021 10 16.0934 0 0
4:35 am 04:35 Cloudy 27 -2.8 22 -5.3 83 83 NNW 12 19 30.16 1021 10 16.0934 0 0
4:55 am 04:55 Cloudy 27 -3 22 -5.5 83 83 NNW 13 20 30.16 1021 10 16.0934 0 0
5:15 am 05:15 Cloudy 26 -3.2 22 -5.5 84 84 N 8 13 30.17 1022 10 16.0934 0 0
5:35 am 05:35 Cloudy 26 -3.5 22 -5.7 85 85 NNW 10 17 30.17 1022 10 16.0934 0 0
5:55 am 05:55 Cloudy 25 -3.8 22 -5.8 86 86 NW 10 17 30.19 1022 10 16.0934 0 0
6:15 am 06:15 Cloudy 25 -4 21 -6 86 86 NNW 8 13 30.2 1023 10 16.0934 0 0
6:35 am 06:35 Cloudy 25 -4.1 21 -6 87 87 NW 8 13 30.2 1023 10 16.0934 0 0
6:55 am 06:55 Cloudy 25 -4.1 21 -6 87 87 N 10 17 30.19 1022 10 16.0934 0 0
7:15 am 07:15 Mostly Cloudy 23 -5.1 20 -6.8 88 88 NNE 7 11 30.18 1022 10 16.0934 0 0
7:35 am 07:35 Partly Cloudy 22 -5.6 19 -7.2 89 89 WNW 3 6 30.19 1022 10 16.0934 0 0
7:55 am 07:55 Mostly Cloudy 22 -5.8 19 -7.1 91 91 NNW 5 7 30.21 1023 10 16.0934 0 0
8:15 am 08:15 Cloudy 22 -5.5 20 -6.9 90 90 N 8 13 30.2 1023 10 16.0934 0 0
8:35 am 08:35 Cloudy 22 -5.5 20 -6.9 90 90 N 8 13 30.2 1023 10 16.0934 0 0
8:55 am 08:55 Cloudy 23 -5.2 20 -6.7 89 89 N 8 13 30.2 1023 10 16.0934 0 0
9:15 am 09:15 Cloudy 22 -5.3 20 -6.7 90 90 NNE 6 9 30.2 1023 10 16.0934 0 0
9:35 am 09:35 Cloudy 23 -5 20 -6.6 89 89 NNE 9 15 30.2 1023 10 16.0934 0 0
9:55 am 09:55 Cloudy 23 -5 20 -6.5 89 89 NNE 8 13 30.22 1023 10 16.0934 0 0
10:15 am 10:15 Cloudy 23 -5 20 -6.6 89 89 NNE 9 15 30.23 1024 10 16.0934 0 0
10:35 am 10:35 Cloudy 24 -4.7 21 -6.3 89 89 NNE 6 9 30.21 1023 10 16.0934 0 0
10:55 am 10:55 Cloudy 24 -4.5 21 -6.3 87 87 N 7 11 30.21 1023 10 16.0934 0 0
11:15 am 11:15 Cloudy 24 -4.4 20 -6.4 86 86 N 8 13 30.21 1023 10 16.0934 0 0
11:35 am 11:35 Mostly Cloudy 25 -4.1 21 -6.1 86 86 N 7 11 30.21 1023 10 16.0934 0 0
11:55 am 11:55 Mostly Cloudy 25 -3.7 21 -6.1 84 84 NNE 7 11 30.2 1023 10 16.0934 0 0
12:15 pm 12:15 Mostly Cloudy 26 -3.3 21 -6 82 82 NW 3 6 30.2 1023 10 16.0934 0 0
12:35 pm 12:35 Cloudy 26 -3.3 21 -6 82 82 Calm 30.2 1023 10 16.0934 0 0
12:55 pm 12:55 Mostly Cloudy 26 -3.1 21 -6 81 81 Calm 30.2 1023 10 16.0934 0 0
1:15 pm 13:15 Cloudy 27 -2.9 21 -5.9 80 80 Calm 30.19 1022 10 16.0934 0 0
1:35 pm 13:35 Cloudy 27 -2.8 22 -5.6 81 81 NNW 5 7 30.18 1022 10 16.0934 0 0
1:55 pm 13:55 Cloudy 28 -2.5 22 -5.3 81 81 NW 6 9 30.17 1022 10 16.0934 0 0
2:15 pm 14:15 Mostly Cloudy 28 -2.5 22 -5.4 81 81 Calm 30.16 1021 10 16.0934 0 0
2:35 pm 14:35 Partly Cloudy 28 -2.3 23 -5.1 81 81 Calm 30.15 1021 10 16.0934 0 0
2:55 pm 14:55 Sunny 28 -2.2 23 -5 81 81 E 3 6 30.14 1021 10 16.0934 0 0
3:15 pm 15:15 Sunny 28 -2.3 23 -5.1 81 81 E 5 7 30.14 1021 10 16.0934 0 0
3:35 pm 15:35 Sunny 28 -2.2 23 -4.9 82 82 E 6 9 30.12 1020 10 16.0934 0 0
3:55 pm 15:55 Sunny 28 -2.5 23 -5.2 82 82 ESE 6 9 30.13 1020 10 16.0934 0 0
4:15 pm 16:15 Sunny 28 -2.5 22 -5.3 81 81 ESE 7 11 30.13 1020 10 16.0934 0 0
4:35 pm 16:35 Sunny 27 -3 22 -5.4 84 84 ESE 6 9 30.15 1021 10 16.0934 0 0
4:55 pm 16:55 Sunny 26 -3.5 22 -5.6 86 86 SSE 7 11 30.16 1021 10 16.0934 0 0
5:15 pm 17:15 Clear 25 -4 21 -6 86 86 ESE 6 9 30.17 1022 10 16.0934 0 0
5:35 pm 17:35 Clear 24 -4.3 21 -6 88 88 Calm 30.18 1022 10 16.0934 0 0
5:55 pm 17:55 Clear 24 -4.4 21 -5.9 89 89 Calm 30.19 1022 10 16.0934 0 0
6:15 pm 18:15 Partly Cloudy 22 -5.5 20 -6.6 92 92 Calm 30.21 1023 10 16.0934 0 0
6:35 pm 18:35 Partly Cloudy 22 -5.3 21 -6.2 93 93 NNE 3 6 30.22 1023 10 16.0934 0 0
6:55 pm 18:55 Clear 22 -5.4 20 -6.5 92 92 ENE 5 7 30.22 1023 10 16.0934 0 0
7:15 pm 19:15 Clear 22 -5.7 20 -6.7 93 93 E 5 7 30.23 1024 10 16.0934 0 0
7:35 pm 19:35 Clear 22 -5.5 20 -6.6 92 92 ENE 3 6 30.24 1024 10 16.0934 0 0
7:55 pm 19:55 Partly Cloudy 22 -5.5 20 -6.5 93 93 Calm 30.25 1024 10 16.0934 0 0
8:15 pm 20:15 Partly Cloudy 23 -5.2 20 -6.5 91 91 Calm 30.26 1025 10 16.0934 0 0
8:35 pm 20:35 Clear 22 -5.6 20 -6.8 91 91 Calm 30.27 1025 10 16.0934 0 0
8:55 pm 20:55 Clear 21 -6.1 19 -7.1 93 93 Calm 30.28 1025 7 11.26538 0 0
9:15 pm 21:15 Clear 20 -6.4 19 -7.4 93 93 Calm 30.28 1025 7 11.26538 0 0
9:35 pm 21:35 Clear 21 -6.3 19 -7.2 93 93 Calm 30.28 1025 7 11.26538 0 0
9:55 pm 21:55 Mostly Cloudy 21 -6.2 19 -7.3 92 92 Calm 30.29 1026 10 16.0934 0 0
10:15 pm 22:15 Cloudy 21 -6.3 19 -7.3 93 93 Calm 30.29 1026 7 11.26538 0 0
10:35 pm 22:35 Cloudy 20 -6.4 19 -7.2 94 94 Calm 30.29 1026 7 11.26538 0 0
10:55 pm 22:55 Cloudy with Mist and Fog 21 -6.1 19 -7 93 93 Calm 30.3 1026 4 6.43736 0 0
11:15 pm 23:15 Cloudy 20 -6.5 19 -7.3 94 94 N 3 6 30.31 1027 7 11.26538 0 0
11:35 pm 23:35 Cloudy 20 -6.4 19 -7.4 93 93 Calm 30.3 1026 10 16.0934 0 0
11:55 pm 23:55 Cloudy 21 -6.1 19 -7 93 93 Calm 30.31 1026 7 11.26538 0 0

Powered by AerisWeather